Location: Lanoux
(43.1180°N, 1.4255°E)
Time: 15:22:56
(UTC+00:00)

Tiangong - Pass Details

Date: 18 February 2026
Orbit: 382 x 391 km, 41.5° (Epoch: 5 March)

Event Time Altitude Azimuth Distance (km) Brightness Sun altitude
Rises 18:48:50 0° 274° (W) 2,257 3.6 -15.2°
Reaches altitude 10° 18:50:57 10° 268° (W) 1,400 2.1 -15.6°
Maximum altitude 18:53:59 44° 194° (SSW) 536 -1.4 -16.1°
Enters shadow 18:55:02 31° 144° (SE) 699 -1.2 -16.3°
